Regional Weather Roundup
Issued by NWS Charleston, SC

Current Version | Previous Version | Text Only | Print | Product List | Glossary Off
Versions: 1 2 3 4 5 6 7 8 9 10 11 12 13 14 15 16 17 18 19 20 21 22 23 24 25 26 27 28 29 30 31 32 33 34 35 36 37 38 39 40 41 42 43 44 45 46 47 48 49 50
000 ASUS42 KCHS 221025 RWRCHS REGIONAL WEATHER ROUNDUP NATIONAL WEATHER SERVICE CHARLESTON SC 500 AM EST WED FEB 22 2017 NOTE: "FAIR" INDICATES FEW OR NO CLOUDS BELOW 12,000 FEET WITH NO SIGNIFICANT WEATHER AND/OR OBSTRUCTIONS TO VISIBILITY. NOT ALL STATIONS ARE QUALITY CONTROLLED. USE DATA WITH CAUTION... ESPECIALLY DEWPOINT OBSERVATIONS. SCZ027-030-031-034>040-042>050-221100- ...SOUTHEAST SOUTH CAROLINA... CITY SKY/WX TMP DP RH WIND PRES REMARKS N CHARLESTON CLOUDY 61 56 83 E7 29.96S WATERFRONT PRK N/A 61 59 93 NE6 29.95F MOUNT PLEASANT CLOUDY 59 57 94 CALM 29.96F JOHNS ISLAND FAIR 63 61 94 E9 29.95F PINOPOLIS N/A 59 57 94 CALM 29.88S MONCKS CORNER FAIR 57 54 88 CALM 29.96S SUMMERVILLE FAIR 59 55 88 E5 29.96S BEAUFORT MCAS CLOUDY 64 59 83 E6 29.93S BEAUFORT ARPT CLOUDY 63 57 82 E6 29.93S HILTON HEAD IS CLOUDY 64 61 88 S7G15 29.95R WALTERBORO MOSUNNY 57 55 94 E5 29.95S ALLENDALE CLOUDY 61 57 88 CALM 29.92F ...SOUTHERN MIDLANDS AND PEE DEE... CITY SKY/WX TMP DP RH WIND PRES REMARKS GEORGETOWN CLOUDY 55 55 100 CALM 30.00S KINGSTREE FAIR 50 48 93 CALM 29.98S ORANGEBURG CLOUDY 57 55 93 E5 29.94F BARNWELL CLOUDY 61 59 94 CALM 29.94S AIKEN FAIR 55 54 94 E5 29.98R MANNING FAIR 52 46 82 MISG 29.97S COLUMBIA CLOUDY 60 54 80 E7 29.95F SUMTER CLOUDY 53 51 94 NE7 29.95F FLORENCE PTCLDY 52 51 97 NE3 29.99S MYRTLE BEACH NOT AVBL N MYRTLE BEACH MOCLDY 61 56 83 SE7 30.00S $$ GAZ063-065-086>088-099>101-113>116-118-119-134>141-150-221100- ...SOUTHEAST GEORGIA... CITY SKY/WX TMP DP RH WIND PRES REMARKS SAVANNAH ARPT CLOUDY 63 59 87 E9 29.91F HUNTER AAF CLOUDY 64 64 100 E9 29.88F FORT STEWART CLOUDY 62 60 94 CALM 29.87F STATESBORO CLOUDY 62 62 100 CALM 29.91S SYLVANIA CLOUDY N/A N/A N/A E5 29.92S CLAXTON FAIR N/A N/A N/A NE7 29.90S ...CSRA...CENTRAL AND FAR SOUTHEAST GEORGIA... CITY SKY/WX TMP DP RH WIND PRES REMARKS THOMSON CLOUDY 62 62 100 E6 29.97S AUGUSTA-BUSH FOG 58 57 97 CALM 29.93R VSB 1/2 AUGUSTA-DANIEL CLOUDY 61 57 87 E6 29.94S SWAINSBORO PTSUNNY 61 61 100 E8 29.90F VIDALIA CLOUDY 63 63 100 E6 29.88S EASTMAN RAIN 65 64 96 E6 29.89S HAZLEHURST FAIR 65 65 100 E5 29.86S ALMA CLOUDY 65 61 87 E6 29.86S WAYCROSS CLOUDY 67 67 98 E7 29.85S JESUP CLOUDY 63 59 88 SE3 29.88S BAXLEY MOCLDY 64 64 100 CALM 29.87S BRUNSWICK CLOUDY 68 63 83 CALM 29.88F SAINT SIMONS CLOUDY 66 61 84 SE6 29.87F $$ SCZ027-028-034-036>038-045-046-048>050-GAZ119-141-221100- ...LAKE AND SUPPLEMENTAL COASTAL OBSERVATIONS... STATION/POSITION TIME TEMP WIND PRES WAVE SWELL AIR SEA DIR/SP/G HT/PER HT/PER/DIR (UTC) (F) (DEG/KT/KT) (MB) (FT/S) (FT/S/D) WINYAH BAY 0930 60 70/ 6 1015.0S LAKE MURRAY 0950 59 CALM / 1 1014.2S ACE BASIN NERRS 0930 60 50/ 2 1013.0F FORT PULASKI 1000 63 61 100/ 11/ 13 1013.4 SAPELO ISLAND 1000 65 100/ 5 1012.0 $$ ANZ835-935-AMZ111-154-330-350-352-354-370-450-454-472-221100- ...C-MAN AND BUOY OBSERVATIONS... STATION/POSITION TIME TEMP WIND PRES WAVE SWELL AIR SEA DIR/SP/G HT/PER HT/PER/DIR (UTC) (F) (DEG/KT/KT) (MB) (FT/S) (FT/S/D) BUOY 41004 0950 69 69 120/ 17/ 19 1013.9S 4/ 6 2/ 80/ 9 BUOY 41008 0950 65 62 90/ 8/ 10 1011.6F 4/ 6 3/120/ 6 FOLLY BEACH CMAN 1000 62 80/ 9/ 11 1014.8F CAPERS NEARSHORE NOT AVBL FRIPP NEARSHORE 1008 63 60 100/ 10/ 14 1013.0R STATION/POSITION TIME TEMP WIND PRES WAVE SWELL AIR SEA DIR/SP/G HT/PER HT/PER/DIR (UTC) (F) (DEG/KT/KT) (MB) (FT/S) (FT/S/D) 5E ST. MARYS GA 1000 64 N/A 4/ 6 FRYING PAN BUOY 1000 68 69 140/ 12/ 16 1016.3 BUOY 41025 0950 64 74 180/ 6/ 8 1018.2F 4/ 9 3/ 50/ 9 CAPE LOOKOUT NC 1000 60 120/ 3/ 3 1017.2R BUOY 41002 0950 64 71 100/ 12/ 16 1017.1S 5/ 8 3/ 20/ 8 BUOY 41010 NOT AVBL ST AUGUSTINE FL 1000 67 68 100/ 6/ 6 1011.3F $$

USA.gov is the U.S. government's official web portal to all federal, state and local government web resources and services.